#timestamp,LO_Frequency,Hit,StdDev 
1654239615.5,286047000.5,N
1654239635.3,286047002.3,N
1654239655.1,286046999.9,N
1654239675.9,286047000.3,N
1654239695.7,286047000.1,N
1654239715.6,286047000.9,N
1654239735.4,286047000.0,N
1654239755.2,286047000.6,N
1654239775.1,286047000.2,N
1654239776.0,286047000.2,N
1654239795.8,286047000.4,N
1654239815.7,286047002.3,N
1654239835.5,286046999.7,N
1654239855.3,286047002.4,N
1654239875.2,286047002.0,N
1654239895.0,286047004.4,Y
1654239895.9,286047004.4,P
1654239915.8,286047002.8,N
1654239935.6,286046999.8,N
1654239955.4,286046999.7,N
1654239975.3,286047000.1,N
1654239995.1,286047000.2,N
1654240015.8,286047002.4,N
1654240035.7,286047002.1,N
1654240055.5,286046999.7,N
1654240075.4,286047001.7,N
1654240095.2,286047002.2,N
1654240115.0,286047001.4,N
1654240115.9,286047001.4,N
1654240135.8,286047004.4,Y
1654240155.6,286047000.1,P
1654240175.4,286047000.0,N
1654240195.3,286047002.8,P
1654240215.1,286047001.9,N
1654240235.9,286047002.4,N
1654240255.7,286047000.2,N
1654240275.5,286046999.8,N
1654240295.4,286047000.2,N
1654240315.2,286047002.1,N
1654240335.0,286047000.2,N
1654240336.0,286047000.2,N
1654240355.8,286047002.8,N
1654240375.6,286047000.1,N
1654240395.5,286047000.1,N
1654240415.3,286047000.0,N
1654240435.1,286047000.6,N
1654240455.9,286046999.9,N
1654240475.7,286046999.7,N
1654240495.6,286047002.5,N
1654240515.4,286047002.4,N
1654240535.2,286047000.0,N
1654240555.1,286047000.6,N
1654240556.0,286047000.6,N
1654240575.8,286047001.2,N
1654240595.6,286047001.0,N
1654240615.5,286047001.0,N
1654240635.3,286047000.6,N
1654240655.2,286047000.0,N
1654240675.9,286047000.3,N
1654240695.7,286046999.9,N
1654240715.6,286047000.6,N
1654240735.4,286047001.0,N
1654240755.2,286047001.0,N
1654240775.1,286047000.0,N
1654240776.0,286047000.0,N
1654240795.8,286047000.8,N
1654240815.7,286047000.0,N
1654240835.5,286047000.3,N
1654240855.3,286047001.2,N
1654240875.2,286047000.3,N
1654240895.0,286047000.6,N
1654240895.9,286047000.6,N
1654240915.8,286047000.3,N
1654240935.6,286047000.5,N
1654240955.4,286047001.1,N
1654240975.3,286047000.7,N
1654240995.1,286046999.0,N
1654241015.8,286046998.4,N
1654241035.7,286046998.1,N
1654241055.5,286046999.0,N
1654241075.4,286046999.9,N
1654241095.2,286047000.6,N
1654241115.0,286047000.9,N
1654241115.9,286047000.9,N
1654241135.8,286046999.8,N
1654241155.6,286047000.5,N
1654241175.5,286046999.9,N
1654241195.3,286047005.1,Y
1654241215.1,286047015.3,P
1654241235.9,286047016.2,N
1654241255.7,286047013.0,N
1654241275.5,286047009.8,N
1654241295.4,286047008.6,N
1654241315.2,286047007.0,N
1654241335.1,286047005.1,N
1654241336.0,286047005.1,N
1654241355.8,286047005.3,N
1654241375.6,286047005.5,N
1654241395.5,286047003.5,N
1654241415.3,286047001.3,N
1654241435.2,286047004.0,N
1654241455.9,286047004.2,N
1654241475.7,286047004.2,N
1654241495.6,286047004.0,N
1654241515.4,286047004.4,N
1654241535.2,286047002.5,N
1654241555.1,286046999.8,N
1654241556.0,286046999.8,N
1654241575.8,286047000.1,N
1654241595.7,286047002.5,N
1654241615.5,286047002.2,N
1654241635.3,286047002.6,N
1654241655.2,286046999.7,N
1654241675.0,286047002.5,N
1654241675.9,286047002.5,N
1654241695.8,286047002.7,N
1654241715.6,286047002.2,N
1654241735.4,286047002.8,N
1654241755.3,286047002.7,N
1654241775.1,286047002.1,N
1654241795.9,286047002.0,N
1654241815.7,286047000.1,N
1654241835.5,286047000.0,N
1654241855.4,286046998.1,N
1654241875.2,286047000.8,N
1654241895.0,286047000.7,N
1654241895.9,286047000.7,N
1654241915.8,286046998.3,N
1654241935.6,286047000.8,N
1654241955.5,286046998.6,N
1654241975.3,286046998.7,N
1654241995.1,286046998.9,N
1654242015.9,286046998.7,N
1654242035.7,286046999.1,N
1654242055.5,286046998.7,N
1654242075.4,286046998.2,N
1654242095.2,286047000.9,N
1654242115.1,286046998.5,N
1654242116.0,286046998.5,N
1654242135.8,286047001.1,N
1654242155.6,286046998.4,N
1654242175.5,286046998.5,N
1654242195.3,286046998.4,N
1654242215.1,286046999.3,N
1654242235.9,286046998.6,N
1654242255.7,286047001.2,N
1654242275.6,286047000.8,N
1654242295.4,286046998.3,N
1654242315.2,286047001.2,N
1654242335.1,286047000.7,N
1654242336.0,286047000.7,N
1654242355.8,286047000.8,N
1654242375.6,286047001.1,N
1654242395.5,286047000.9,N
1654242415.3,286046998.2,N
1654242435.2,286046999.1,N
1654242455.9,286046999.1,N
1654242475.7,286046999.2,N
1654242495.6,286046995.6,Y
1654242515.4,286046997.8,P
1654242535.3,286046999.1,N
1654242555.1,286046996.6,P
1654242556.0,286046996.6,Y
1654242575.8,286046998.1,P
1654242595.7,286047000.7,P
1654242615.5,286047000.0,N
1654242635.3,286047002.0,N
1654242655.2,286047001.6,N
1654242675.0,286047001.6,N
1654242675.9,286047001.6,N
1654242695.8,286047001.8,N
1654242715.6,286047001.7,N
1654242735.4,286047001.3,N
1654242755.3,286047004.1,Y
1654242775.1,286047002.8,P
1654242795.9,286046999.9,N
1654242815.7,286047002.8,N
1654242835.5,286047002.0,N
1654242855.4,286047002.6,N
1654242875.2,286047002.2,N
1654242895.0,286047001.3,N
1654242895.9,286047001.3,N
1654242915.8,286047001.9,N
1654242935.6,286047001.8,N
1654242955.5,286047004.0,Y
1654242975.3,286047000.2,P
1654242995.1,286047002.8,P
1654243015.9,286047000.1,N
1654243035.7,286046999.9,N
1654243055.6,286047000.1,N
1654243075.4,286047000.7,N
1654243095.2,286046998.2,N
1654243115.1,286046998.1,N
1654243116.0,286046998.1,N
1654243135.8,286047001.1,N
1654243155.7,286047000.2,N
1654243175.5,286046999.8,N
1654243195.4,286047002.8,N
